Other Public Products
Issued by NWS Grand Forks, ND

Home | Current Version | Previous Version | Text Only | Print | Product List | Glossary On
Versions: 1 2 3 4 5 6 7 8 9 10 11 12 13 14 15 16 17 18 19 20 21 22 23 24 25 26 27 28 29 30 31 32 33 34 35 36 37 38 39 40 41 42 43 44 45 46 47 48 49 50
000
FPUS83 KFGF 230731
OPUFGF
PRAIRIE TO PINES WEATHER ROUNDUP
NATIONAL WEATHER SERVICE EASTERN NORTH DAKOTA/GRAND FORKS ND
200 AM CDT SUN JUL 23 2017

 **SATELLITE DATA USED TO AUGMENT SKY COVER AT AUTOMATED STATIONS**
 *****  WEATHER ACROSS EASTERN NORTH DAKOTA  *****

CITY           SKY/WX    TMP DP  RH WIND       PRES   REMARKS
GRAND FORKS    MOCLDY    62  61  96 NW7       29.91S
GRAND FORKS AF FAIR      60  59  97 NW7       29.92S
GRAND CITY NWS NOT AVBL
BUXTON           N/A     61  60  97 NW7         N/A
DEVILS LAKE    FAIR      60  58  92 N8        29.99S
FARGO          FAIR      63  59  87 NW8       29.91S
WAHPETON ARPT  FAIR      59  55  88 W6        29.93S
$$

 *****  WEATHER ACROSS CENTRAL AND WESTERN NORTH DAKOTA  *****

CITY           SKY/WX    TMP DP  RH WIND       PRES   REMARKS
JAMESTOWN      FAIR      60  56  86 NW8       29.97S
BISMARCK       FAIR      65  55  70 NW3       30.04S
MINOT          FAIR      60  53  77 W7        30.03S
MINOT AFB      FAIR      53  51  93 NW3       30.02S
GARRISON         N/A     54  52  93 NW3       30.04R
WILLISTON      FAIR      61  51  70 CALM      30.06R
DICKINSON      FAIR      60  50  69 E5        30.07R
HETTINGER      FAIR      58  49  72 NE3       30.10R
$$

 *****  OTHER OBSERVATIONS NORTHEAST NORTH DAKOTA  *****

CITY           SKY/WX    TMP DP  RH WIND       PRES   REMARKS
WALHALLA       NOT AVBL
LANGDON        FAIR      57  57 100 N8        29.99S
CAVALIER       CLOUDY    64  61  88 NW12      29.93S
GRAFTON        FAIR      63  61  94 N13       29.94S
CANDO          NOT AVBL
FORT TOTTEN      N/A     63  59  88 N5        29.95S
ROLLA            N/A     57  57 100 NW8       30.02S
RUGBY          NOT AVBL
 ***** THE ABOVE OBSERVATIONS ARE NON NWS ARE NOT QUALITY
        CONTROLLED AND MAY MIS-REPORT RAIN FOR SNOW...
$$

 *****  OTHER OBSERVATIONS SOUTHEAST NORTH DAKOTA *****

CITY           SKY/WX    TMP DP  RH WIND       PRES   REMARKS
COOPERSTOWN    FAIR      61  59  94 NW10      29.97S
VALLEY CITY    FAIR      59  59 100 NW9       29.97S
OAKES          NOT AVBL
GWINNER        SUNNY     63  59  88 NW8       29.95F
SHEYENNE NWR     N/A     59  58  98 W3        29.95S
BUFFALO          N/A     61  57  87 N6          N/A
WYNDMERE       NOT AVBL
 ***** THE ABOVE OBSERVATIONS ARE NON NWS ARE NOT QUALITY
       CONTROLLED AND MAY MIS-REPORT RAIN FOR SNOW...
$$

  *****  WEATHER ACROSS NORTHERN MINNESOTA  *****

CITY           SKY/WX    TMP DP  RH WIND       PRES   REMARKS
FLAG ISLAND    FAIR      64  61  88 NE8       29.86R
WARROAD        CLOUDY    61  55  82 W5        29.88S
ROSEAU         FAIR      61  55  82 NW5       29.88S
HALLOCK        CLOUDY    63  61  94 NW10      29.91S
THF RVR FALLS  MOCLDY    61  59  94 NW9       29.91S
HALSTAD          N/A     58  55  92 NW6         N/A
FOSSTON        CLOUDY    61  57  88 NW8       29.90S
BAUDETTE       MOCLDY    58  58 100 NW3       29.86R
WASKISH        CLOUDY    61  57  88 NW9       29.86S
CROOKSTON      FAIR      61  57  88 N6        29.91S
$$
  *****  WEATHER ACROSS CENTRAL AND WEST MINNESOTA  *****

CITY           SKY/WX    TMP DP  RH WIND       PRES   REMARKS
BEMIDJI        CLOUDY    61  58  90 NW7       29.87S
PARK RAPIDS    FAIR      58  55  90 W5        29.89S
WADENA         FAIR      59  55  88 W3        29.89S
DETROIT LAKES  CLOUDY    63  59  88 NW8       29.92R
MOORHEAD       FAIR      63  57  82 NW7       29.92S
FERGUS FALLS   FAIR      61  61 100 NW3       29.91S
ELBOW LAKE     FAIR      63  59  86 W7        29.92S
MORRIS MN      FAIR      64  59  82 N6        29.90F
STAPLES        FAIR      57  55  94 W3        29.89S
WHEATON        FAIR      63  57  82 W6        29.94S
$$
  *****  WEATHER ELSEWHERE ACROSS MINNESOTA  *****

CITY           SKY/WX    TMP DP  RH WIND       PRES   REMARKS
DULUTH         CLOUDY    54  54 100 SE5       29.84F
INTRNTL FALLS  MOCLDY    58  57  97 N3        29.83F FOG
ELY            LGT RAIN  59  59 100 CALM      29.81S
CLOQUET        FOG       55  55 100 CALM      29.84F VSB 1/2
BRAINERD       FAIR      65  56  72 NW7       29.87S
HIBBING        FAIR      59  58  96 NW5       29.83F
ALEXANDRIA     FAIR      65  58  78 NW7       29.92S
SAINT CLOUD    MOCLDY    67  59  75 NW6       29.86S
MINNEAPOLIS    FAIR      72  61  68 NW6       29.83F
$$

  *****  WEATHER ACROSS SOUTH DAKOTA  *****

CITY           SKY/WX    TMP DP  RH WIND       PRES   REMARKS
SIOUX FALLS    FAIR      70  64  81 NW9       29.94R
BROOKINGS      FAIR      67  59  75 N9        29.96R
WATERTOWN      FAIR      62  59  90 N3        29.95F
HURON          FAIR      64  60  87 NW5       29.97R
SISSETON         N/A     63  60  90 NW7       29.93S
ABERDEEN       FAIR      64  59  83 N6        29.98R
MITCHELL       FAIR      68  61  78 NW5       29.96S
PIERRE         FAIR      63  49  60 NE3       30.00S
MOBRIDGE       FAIR      65  56  72 NE7       30.01R
RAPID CITY     FAIR      63  44  50 NW9       30.12R
$$

  *****  SOME WEATHER IN NEARBY STATES *****

CITY           SKY/WX    TMP DP  RH WIND       PRES   REMARKS
GLASGOW MT     FAIR      63  46  54 MISG      30.04S
GREAT FALLS MT FAIR      62  40  44 W3        30.09S
CHEYENNE WY    FAIR      63  48  58 W5        30.27S
SCOTTSBLUFF NE FAIR      67  50  54 E6        30.13S
OMAHA NE       MOCLDY    72  69  90 N3        29.93S
DES MOINES IA  FAIR      77  73  87 W5        29.87S
DAVENPORT IA   FAIR      74  73  97 W5        29.84F
CHICAGO IL     FAIR      73  69  87 CALM      29.79S
EAU CLAIRE WI  FAIR      66  66 100 CALM      29.81R FOG
LA CROSSE WI   FAIR      71  69  93 S7        29.82F
$$

  *****  SOME NATIONAL WEATHER *****

CITY           SKY/WX    TMP DP  RH WIND       PRES   REMARKS
LA GUARDIA NY  CLOUDY    73  70  90 CALM      29.72S
RALEIGH NC     FAIR      81  73  76 SW10      29.86F
ATLANTA GA     FAIR      76  74  93 W7        29.97F
NEW ORLEANS LA FAIR      77  75  93 S5        29.97S
OKLAHOMA CITY  FAIR      81  71  71 S8        29.89F
ALBUQUERQUE NM CLOUDY    70  60  70 SE9       30.24S
SALT LAKE CITY FAIR      78  45  30 S5        30.06S
LOS ANGELES CA FAIR      68  62  81 W6        29.90S
BOISE ID       FAIR      71  36  27 CALM      30.01R
SEATTLE WA     FAIR      67  58  72 N14       30.11S
$$

*** WEATHER ACROSS MANITOBA...SASKATCHEWAN AND ONTARIO ***
                ***ONTARIO***

CITY           SKY/WX    TMP DP  RH WIND       PRES   REMARKS
GERALDTON      PTCLDY    54  50  87 NE2       29.90R
THUNDER BAY    CLOUDY    59  59 100 E7        29.83F
SIOUX LOOKOUT  MOCLDY    61  59  94 E3        29.90R
TORONTO        MOCLDY    68  64  88 S3        29.78F
BIG TROUT LK   CLEAR     55  45  67 E3        29.99S
PICKLE LAKE    NOT AVBL
DRYDEN         PTCLDY    61  59  94 E7        29.89R
KENORA         PTCLDY    61  59  94 N6        29.89R
$$
                *** MANITOBA***

CITY           SKY/WX    TMP DP  RH WIND       PRES   REMARKS
BRANDON        CLEAR     55  54  94 N7        30.00S
DAUPHIN        CLEAR     57  55  94 W8        29.99F
ISLAND LAKE    NOT AVBL
PILOT MOUND      N/A     57  55  94 N7          N/A
THE PAS        CLEAR     57  50  77 S3        29.95S
THOMPSON       CLEAR     50  43  76 CALM      29.91S
WINNIPEG       PTCLDY    55  55 100 NW6       29.94R
LYNN LAKE      CLEAR     61  46  59 SW7       29.87S
CHURCHILL      PTCLDY    57  52  82 S9        29.81F
GILLAM         PTCLDY    59  43  55 S8        29.92S
$$
                ***SASKATCHEWAN***

CITY           SKY/WX    TMP DP  RH WIND       PRES   REMARKS
ESTEVAN        PTCLDY    54  54 100 NE17      30.04F
KINDERSLEY     CLEAR     59  54  82 S7        29.97S
LLOYDMINSTER   MOCLDY    63  57  82 S8        29.95F
PRINCE ALBERT  PTCLDY    54  52  94 CALM      29.98S
REGINA         PTCLDY    59  54  82 SE8       30.04
YORKTON        CLEAR     59  57  94 SW6       30.01F



USA.gov is the U.S. government's official web portal to all federal, state and local government web resources and services.